DL9BGG-13 Weather Reports


time (UTC)temp
F
wind
direction
speed
knots
gust
knots
rain 1hr
in
rain 24hr
in
rain mn
in
humidity
%
barometer
mb
20260506070640 56 112 11.3 0.0 0.00 0.00 0.00 71 1054.6
20260506070534 56 67 10.4 0.0 0.00 0.00 0.00 72 1054.6
20260506070420 56 45 10.4 0.0 0.00 0.00 0.00 72 1054.6
20260506070307 56 67 8.7 0.0 0.00 0.00 0.00 73 1054.6
20260506070202 55 90 5.2 0.0 0.00 0.00 0.00 72 1054.5
20260506062354 53 90 6.1 0.0 0.00 0.00 0.00 82 1054.4
20260506062242 53 45 6.1 0.0 0.00 0.00 0.00 82 1054.4
20260506062130 53 22 11.3 0.0 0.00 0.00 0.00 83 1054.4
20260506062016 53 90 2.6 0.0 0.00 0.00 0.00 83 1054.4
20260506061854 53 45 3.5 0.0 0.00 0.00 0.00 83 1054.3
20260506061724 53 112 0.9 0.0 0.00 0.00 0.00 84 1054.4
20260506061610 53 45 5.2 0.0 0.00 0.00 0.00 84 1054.4
20260506061504 53 22 6.1 0.0 0.00 0.00 0.00 84 1054.4
20260506061349 52 67 4.3 0.0 0.00 0.00 0.00 84 1054.4
20260506061228 52 22 5.2 0.0 0.00 0.00 0.00 85 1054.4
20260506061059 52 67 7.0 0.0 0.00 0.00 0.00 85 1054.3
20260506060946 52 22 4.3 0.0 0.00 0.00 0.00 85 1054.3
20260506060832 52 45 2.6 0.0 0.00 0.00 0.00 85 1054.3
20260506060714 52 22 5.2 0.0 0.00 0.00 0.00 85 1054.3
20260506060601 52 0 7.8 0.0 0.00 0.00 0.00 85 1054.3
20260506060453 52 45 6.1 0.0 0.00 0.00 0.00 86 1054.3
20260506060333 52 112 6.1 0.0 0.00 0.00 0.00 86 1054.4
20260506060218 52 90 3.5 0.0 0.00 0.00 0.00 86 1054.4
20260506051327 50 45 3.5 0.0 0.00 0.00 0.00 90 1054.3
20260506051208 50 67 3.5 0.0 0.00 0.00 0.00 90 1054.3
20260506051052 50 45 5.2 0.0 0.00 0.00 0.00 91 1054.3
20260506050939 50 45 8.7 0.0 0.00 0.00 0.00 91 1054.3
20260506050817 49 45 6.1 0.0 0.00 0.00 0.00 91 1054.3
20260506050656 49 45 2.6 0.0 0.00 0.00 0.00 91 1054.3
20260506050545 49 90 6.1 0.0 0.00 0.00 0.00 91 1054.3
20260506050438 49 45 7.0 0.0 0.00 0.00 0.00 91 1054.3
20260506050318 49 22 4.3 0.0 0.00 0.00 0.00 91 1054.3
20260506050204 49 22 2.6 0.0 0.00 0.00 0.00 91 1054.3
20260506045033 49 45 0.0 0.0 0.00 0.00 0.00 91 1054.4
20260506044912 49 45 7.8 0.0 0.00 0.00 0.00 91 1054.4
20260506044759 48 22 5.2 0.0 0.00 0.00 0.00 91 1054.4
20260506044639 49 67 1.7 0.0 0.00 0.00 0.00 91 1054.4
20260506044535 49 22 7.8 0.0 0.00 0.00 0.00 91 1054.5
20260506044429 48 67 0.0 0.0 0.00 0.00 0.00 91 1054.5
20260506044315 48 67 4.3 0.0 0.00 0.00 0.00 91 1054.5
20260506044202 48 67 5.2 0.0 0.00 0.00 0.00 92 1054.4
20260506044057 48 45 5.2 0.0 0.00 0.00 0.00 92 1054.4
20260506043954 48 45 5.2 0.0 0.00 0.00 0.00 92 1054.3
20260506043838 48 90 2.6 0.0 0.00 0.00 0.00 92 1054.4
20260506043725 48 67 3.5 0.0 0.00 0.00 0.00 92 1054.4
20260506043605 48 45 3.5 0.0 0.00 0.00 0.00 92 1054.4
20260506043500 48 45 5.2 0.0 0.00 0.00 0.00 92 1054.3
20260506043355 48 67 6.1 0.0 0.00 0.00 0.00 92 1054.3
20260506043250 48 45 5.2 0.0 0.00 0.00 0.00 92 1054.3
20260506043143 48 67 5.2 0.0 0.00 0.00 0.00 91 1054.3
20260506043025 48 67 3.5 0.0 0.00 0.00 0.00 91 1054.3
20260506042910 48 90 4.3 0.0 0.00 0.00 0.00 91 1054.4
20260506042758 48 67 1.7 0.0 0.00 0.00 0.00 91 1054.4
20260506042651 48 67 4.3 0.0 0.00 0.00 0.00 91 1054.4
20260506042533 48 67 3.5 0.0 0.00 0.00 0.00 91 1054.4
20260506042425 48 67 2.6 0.0 0.00 0.00 0.00 92 1054.4
20260506042313 48 22 3.5 0.0 0.00 0.00 0.00 92 1054.4
20260506042159 48 22 7.0 0.0 0.00 0.00 0.00 92 1054.4
20260506042048 48 45 4.3 0.0 0.00 0.00 0.00 92 1054.3
20260506041933 48 45 4.3 0.0 0.00 0.00 0.00 92 1054.5
20260506041812 48 45 3.5 0.0 0.00 0.00 0.00 92 1054.3
20260506041659 48 67 6.1 0.0 0.00 0.00 0.00 92 1054.4
20260506041546 48 45 0.0 0.0 0.00 0.00 0.00 92 1054.4
20260506041443 48 45 4.3 0.0 0.00 0.00 0.00 92 1054.3
20260506041330 48 22 8.7 0.0 0.00 0.00 0.00 92 1054.3
20260506041223 48 67 5.2 0.0 0.00 0.00 0.00 92 1054.3
20260506041117 48 45 1.7 0.0 0.00 0.00 0.00 92 1054.2
20260506041004 48 45 0.0 0.0 0.00 0.00 0.00 92 1054.4
20260506040847 48 67 0.0 0.0 0.00 0.00 0.00 92 1054.3
20260506040739 48 67 3.5 0.0 0.00 0.00 0.00 92 1054.3
20260506040633 48 67 7.8 0.0 0.00 0.00 0.00 92 1054.2
20260506040519 48 45 5.2 0.0 0.00 0.00 0.00 92 1054.3
20260506040359 48 67 5.2 0.0 0.00 0.00 0.00 92 1054.3
20260506040237 47 45 8.7 0.0 0.00 0.00 0.00 92 1054.3
20260506040126 48 45 5.2 0.0 0.00 0.00 0.00 92 1054.3
20260506040019 48 45 7.8 0.0 0.00 0.00 0.00 92 1054.3
20260506035906 48 45 6.1 0.0 0.00 0.00 0.00 92 1054.2
20260506035748 47 45 3.5 0.0 0.00 0.00 0.00 92 1054.4
20260506035640 48 45 7.0 0.0 0.00 0.00 0.00 92 1054.3
20260506035521 48 45 1.7 0.0 0.00 0.00 0.00 92 1054.3
20260506035413 48 45 6.1 0.0 0.00 0.00 0.00 92 1054.4
20260506035253 47 22 6.1 0.0 0.00 0.00 0.00 92 1054.3
20260506035150 47 67 0.0 0.0 0.00 0.00 0.00 92 1054.4
20260506035041 47 45 8.7 0.0 0.00 0.00 0.00 92 1054.3
20260506034930 48 90 3.5 0.0 0.00 0.00 0.00 92 1054.4
20260506034823 47 45 7.8 0.0 0.00 0.00 0.00 92 1054.4
20260506034703 47 45 0.9 0.0 0.00 0.00 0.00 92 1054.4
20260506034552 47 67 2.6 0.0 0.00 0.00 0.00 92 1054.5
20260506034445 47 45 3.5 0.0 0.00 0.00 0.00 92 1054.4
20260506034331 47 90 6.1 0.0 0.00 0.00 0.00 92 1054.5
20260506034203 47 90 6.1 0.0 0.00 0.00 0.00 92 1054.4
20260506034058 47 67 5.2 0.0 0.00 0.00 0.00 92 1054.4
20260506033944 47 90 0.0 0.0 0.00 0.00 0.00 92 1054.5
20260506033815 47 67 3.5 0.0 0.00 0.00 0.00 92 1054.4
20260506033701 47 112 2.6 0.0 0.00 0.00 0.00 92 1054.3
20260506033533 47 67 1.7 0.0 0.00 0.00 0.00 92 1054.3
20260506033430 47 90 4.3 0.0 0.00 0.00 0.00 92 1054.4
20260506033322 47 67 6.1 0.0 0.00 0.00 0.00 92 1054.4
20260506033201 47 45 5.2 0.0 0.00 0.00 0.00 92 1054.4
20260506033048 47 90 0.9 0.0 0.00 0.00 0.00 92 1054.5
20260506032938 47 90 0.0 0.0 0.00 0.00 0.00 92 1054.4
20260506032832 47 67 5.2 0.0 0.00 0.00 0.00 92 1054.5
20260506032725 47 45 5.2 0.0 0.00 0.00 0.00 92 1054.4
20260506032613 48 67 7.0 0.0 0.00 0.00 0.00 92 1054.4
20260506032507 48 112 7.0 0.0 0.00 0.00 0.00 92 1054.4
20260506032354 47 67 3.5 0.0 0.00 0.00 0.00 92 1054.5
20260506032241 47 67 5.2 0.0 0.00 0.00 0.00 92 1054.4
20260506032138 47 90 6.1 0.0 0.00 0.00 0.00 92 1054.5
20260506032030 47 45 7.0 0.0 0.00 0.00 0.00 92 1054.4
20260506031910 48 45 6.1 0.0 0.00 0.00 0.00 92 1054.6
20260506031758 48 67 0.0 0.0 0.00 0.00 0.00 92 1054.6
20260506031643 47 45 0.0 0.0 0.00 0.00 0.00 92 1054.6
20260506031523 47 22 6.1 0.0 0.00 0.00 0.00 92 1054.6
20260506031416 47 45 3.5 0.0 0.00 0.00 0.00 92 1054.6
20260506031255 47 45 4.3 0.0 0.00 0.00 0.00 92 1054.6
20260506031134 47 45 6.1 0.0 0.00 0.00 0.00 92 1054.5
20260506031020 47 67 0.0 0.0 0.00 0.00 0.00 92 1054.6
20260506030908 47 45 6.1 0.0 0.00 0.00 0.00 91 1054.6
20260506030757 47 45 2.6 0.0 0.00 0.00 0.00 91 1054.5
20260506030650 47 45 4.3 0.0 0.00 0.00 0.00 91 1054.5
20260506030522 47 22 4.3 0.0 0.00 0.00 0.00 91 1054.6
20260506030407 47 67 2.6 0.0 0.00 0.00 0.00 91 1054.6
20260506030255 47 45 5.2 0.0 0.00 0.00 0.00 91 1054.5
20260506030149 46 45 3.5 0.0 0.00 0.00 0.00 91 1054.5
20260506030037 46 45 1.7 0.0 0.00 0.00 0.00 91 1054.7
20260506025915 46 22 3.5 0.0 0.00 0.00 0.00 91 1054.5
20260506025802 46 45 3.5 0.0 0.00 0.00 0.00 91 1054.6
20260506025649 46 45 0.0 0.0 0.00 0.00 0.00 91 1054.6
20260506025527 46 67 1.7 0.0 0.00 0.00 0.00 91 1054.6
20260506025407 46 45 3.5 0.0 0.00 0.00 0.00 91 1054.7
20260506025301 46 45 0.0 0.0 0.00 0.00 0.00 91 1054.7
20260506025132 46 45 0.0 0.0 0.00 0.00 0.00 91 1054.7
20260506024858 46 45 0.0 0.0 0.00 0.00 0.00 91 1054.7
20260506024744 46 45 0.0 0.0 0.00 0.00 0.00 91 1054.7
20260506024626 46 45 0.0 0.0 0.00 0.00 0.00 91 1054.8
20260506024519 46 45 3.5 0.0 0.00 0.00 0.00 91 1054.8
20260506024408 46 45 0.0 0.0 0.00 0.00 0.00 91 1054.7
20260506024300 46 45 0.0 0.0 0.00 0.00 0.00 91 1054.8
20260506024147 46 45 0.0 0.0 0.00 0.00 0.00 90 1054.7
20260506024042 46 45 0.0 0.0 0.00 0.00 0.00 90 1054.7
20260506023921 46 45 0.0 0.0 0.00 0.00 0.00 90 1054.8
20260506023807 46 67 2.6 0.0 0.00 0.00 0.00 90 1054.7
20260506023654 46 45 4.3 0.0 0.00 0.00 0.00 90 1054.7
20260506023541 46 45 2.6 0.0 0.00 0.00 0.00 90 1054.7
20260506023420 46 45 0.0 0.0 0.00 0.00 0.00 90 1054.7
20260506023307 46 45 0.0 0.0 0.00 0.00 0.00 90 1054.8
20260506023155 46 45 0.0 0.0 0.00 0.00 0.00 90 1054.8
20260506023049 46 45 2.6 0.0 0.00 0.00 0.00 90 1054.8
20260506022938 46 45 0.0 0.0 0.00 0.00 0.00 90 1054.8
20260506022830 46 45 0.0 0.0 0.00 0.00 0.00 90 1054.7
20260506022709 46 45 3.5 0.0 0.00 0.00 0.00 90 1054.7
20260506022557 46 45 1.7 0.0 0.00 0.00 0.00 90 1054.7
20260506022444 46 45 2.6 0.0 0.00 0.00 0.00 90 1054.6
20260506022330 46 45 3.5 0.0 0.00 0.00 0.00 90 1054.7
20260506022217 46 67 1.7 0.0 0.00 0.00 0.00 90 1054.7
20260506022105 46 67 3.5 0.0 0.00 0.00 0.00 90 1054.7
20260506021959 46 45 1.7 0.0 0.00 0.00 0.00 90 1054.8
20260506021837 46 45 4.3 0.0 0.00 0.00 0.00 90 1054.6
20260506021724 46 45 2.6 0.0 0.00 0.00 0.00 90 1054.8
20260506021603 47 45 1.7 0.0 0.00 0.00 0.00 90 1054.7
20260506021451 46 45 3.5 0.0 0.00 0.00 0.00 90 1054.7
20260506021345 47 67 1.7 0.0 0.00 0.00 0.00 90 1054.6
20260506021224 47 45 2.6 0.0 0.00 0.00 0.00 90 1054.7
20260506021110 47 45 4.3 0.0 0.00 0.00 0.00 90 1054.7
20260506020950 47 45 0.0 0.0 0.00 0.00 0.00 90 1054.7
20260506020844 47 45 3.5 0.0 0.00 0.00 0.00 90 1054.8
20260506020731 47 45 1.7 0.0 0.00 0.00 0.00 90 1054.8
20260506020610 47 45 2.6 0.0 0.00 0.00 0.00 90 1054.8
20260506020448 47 67 2.6 0.0 0.00 0.00 0.00 90 1054.8
20260506020338 47 45 0.0 0.0 0.00 0.00 0.00 90 1054.8
20260506020231 47 67 0.0 0.0 0.00 0.00 0.00 90 1054.9
20260506020110 47 45 3.5 0.0 0.00 0.00 0.00 90 1054.8
20260506020005 47 45 5.2 0.0 0.00 0.00 0.00 90 1054.9
20260506015852 47 67 1.7 0.0 0.00 0.00 0.00 90 1054.8
20260506015748 47 67 0.0 0.0 0.00 0.00 0.00 90 1054.8
20260506015641 47 45 0.0 0.0 0.00 0.00 0.00 90 1054.9
20260506015520 47 45 3.5 0.0 0.00 0.00 0.00 90 1054.7
20260506015407 47 45 5.2 0.0 0.00 0.00 0.00 90 1054.8
20260506015305 47 67 0.0 0.0 0.00 0.00 0.00 90 1054.9
20260506015149 47 45 0.0 0.0 0.00 0.00 0.00 90 1054.9
20260506015027 47 67 0.0 0.0 0.00 0.00 0.00 90 1054.9
20260506014915 47 67 0.0 0.0 0.00 0.00 0.00 90 1054.8
20260506014809 47 67 0.0 0.0 0.00 0.00 0.00 90 1054.9
20260506014649 47 90 0.0 0.0 0.00 0.00 0.00 90 1054.9
20260506014536 47 45 1.7 0.0 0.00 0.00 0.00 90 1054.8
20260506014430 47 45 0.0 0.0 0.00 0.00 0.00 90 1054.8
20260506014316 47 90 2.6 0.0 0.00 0.00 0.00 90 1054.8
20260506014147 47 45 3.5 0.0 0.00 0.00 0.00 90 1054.9
20260506014030 47 90 0.0 0.0 0.00 0.00 0.00 90 1054.8
20260506013918 47 90 1.7 0.0 0.00 0.00 0.00 90 1054.8
20260506013658 48 45 0.0 0.0 0.00 0.00 0.00 90 1054.9
20260506013552 48 67 0.0 0.0 0.00 0.00 0.00 91 1054.8
20260506013438 48 45 3.5 0.0 0.00 0.00 0.00 91 1054.8
20260506013324 48 45 3.5 0.0 0.00 0.00 0.00 91 1054.8
20260506013211 48 45 4.3 0.0 0.00 0.00 0.00 91 1054.8
20260506013049 48 45 0.0 0.0 0.00 0.00 0.00 91 1054.8
20260506012928 48 45 0.0 0.0 0.00 0.00 0.00 91 1054.8
20260506012808 48 90 3.5 0.0 0.00 0.00 0.00 91 1054.8
20260506012702 48 45 2.6 0.0 0.00 0.00 0.00 91 1054.9
20260506012549 48 67 1.7 0.0 0.00 0.00 0.00 91 1054.9
20260506012436 48 90 0.0 0.0 0.00 0.00 0.00 90 1054.9
20260506012333 48 90 0.0 0.0 0.00 0.00 0.00 91 1054.9
20260506012228 48 90 0.0 0.0 0.00 0.00 0.00 90 1054.9
20260506012113 48 90 0.9 0.0 0.00 0.00 0.00 90 1054.9
20260506012000 48 90 0.0 0.0 0.00 0.00 0.00 90 1055.0
20260506011846 48 67 0.0 0.0 0.00 0.00 0.00 90 1054.9
20260506011725 48 67 2.6 0.0 0.00 0.00 0.00 90 1054.9
20260506011612 48 67 6.1 0.0 0.00 0.00 0.00 90 1055.0
20260506011458 48 67 0.0 0.0 0.00 0.00 0.00 90 1055.0
20260506011338 48 67 1.7 0.0 0.00 0.00 0.00 90 1054.9
20260506011225 48 67 4.3 0.0 0.00 0.00 0.00 90 1054.9
20260506011120 48 45 5.2 0.0 0.00 0.00 0.00 90 1054.8
20260506011007 48 22 5.2 0.0 0.00 0.00 0.00 90 1054.9
20260506010854 48 45 5.2 0.0 0.00 0.00 0.00 90 1054.9
20260506010748 48 45 7.0 0.0 0.00 0.00 0.00 90 1054.8
20260506010638 48 90 4.3 0.0 0.00 0.00 0.00 90 1054.9
20260506010532 48 45 5.2 0.0 0.00 0.00 0.00 90 1054.9
20260506010428 48 45 2.6 0.0 0.00 0.00 0.00 90 1054.9
20260506010320 48 45 0.0 0.0 0.00 0.00 0.00 90 1055.0
20260506005900 48 45 4.3 0.0 0.00 0.00 0.00 90 1054.9
20260506005747 48 67 7.0 0.0 0.00 0.00 0.00 90 1054.9
20260506005618 48 67 5.2 0.0 0.00 0.00 0.00 90 1055.0
20260506005505 48 22 4.3 0.0 0.00 0.00 0.00 90 1054.9
20260506005400 49 67 3.5 0.0 0.00 0.00 0.00 90 1054.9
20260506005254 49 45 3.5 0.0 0.00 0.00 0.00 90 1054.9
20260506005144 49 45 3.5 0.0 0.00 0.00 0.00 90 1054.9
20260506005028 49 45 4.3 0.0 0.00 0.00 0.00 90 1054.9
20260506004906 49 22 6.1 0.0 0.00 0.00 0.00 89 1054.9
20260506004746 49 45 4.3 0.0 0.00 0.00 0.00 89 1054.9
20260506004639 49 45 4.3 0.0 0.00 0.00 0.00 89 1055.0
20260506004459 49 45 2.6 0.0 0.00 0.00 0.00 89 1055.0
20260506004347 49 45 3.5 0.0 0.00 0.00 0.00 90 1054.9
20260506004240 49 45 5.2 0.0 0.00 0.00 0.00 90 1055.0
20260506004126 49 45 5.2 0.0 0.00 0.00 0.00 90 1055.0
20260506004019 49 45 5.2 0.0 0.00 0.00 0.00 90 1055.2
20260506003914 49 22 2.6 0.0 0.00 0.00 0.00 90 1055.1
20260506003801 49 45 4.3 0.0 0.00 0.00 0.00 89 1055.1
20260506003653 49 45 2.6 0.0 0.00 0.00 0.00 89 1055.2
20260506003538 49 45 2.6 0.0 0.00 0.00 0.00 89 1055.1
20260506003425 49 112 0.0 0.0 0.00 0.00 0.00 89 1055.2
20260506003319 49 45 3.5 0.0 0.00 0.00 0.00 89 1055.2
20260506003205 49 67 2.6 0.0 0.00 0.00 0.00 89 1055.2
20260506003058 49 67 4.3 0.0 0.00 0.00 0.00 89 1055.2
20260506002953 49 45 4.3 0.0 0.00 0.00 0.00 89 1055.2
20260506002847 49 90 0.0 0.0 0.00 0.00 0.00 89 1055.2
20260506002740 49 22 4.3 0.0 0.00 0.00 0.00 89 1055.2
20260506002634 49 90 4.3 0.0 0.00 0.00 0.00 89 1055.2
20260506002515 49 45 6.1 0.0 0.00 0.00 0.00 89 1055.2
20260506002409 50 45 2.6 0.0 0.00 0.00 0.00 89 1055.2
20260506002306 50 45 7.8 0.0 0.00 0.00 0.00 88 1055.2
20260506002155 50 45 6.1 0.0 0.00 0.00 0.00 88 1055.2
20260506002043 50 22 4.3 0.0 0.00 0.00 0.00 88 1055.2
20260506001936 50 22 5.2 0.0 0.00 0.00 0.00 88 1055.2
20260506001817 50 22 4.3 0.0 0.00 0.00 0.00 88 1055.2
20260506001655 50 22 7.0 0.0 0.00 0.00 0.00 88 1055.2
20260506001435 50 67 7.8 0.0 0.00 0.00 0.00 88 1055.2
20260506001329 50 22 3.5 0.0 0.00 0.00 0.00 88 1055.2
20260506001218 50 45 7.0 0.0 0.00 0.00 0.00 88 1055.2
20260506001112 50 22 5.2 0.0 0.00 0.00 0.00 88 1055.3
20260506000951 50 0 5.2 0.0 0.00 0.00 0.00 88 1055.4
20260506000836 50 22 8.7 0.0 0.00 0.00 0.00 88 1055.3
20260506000717 50 45 9.6 0.0 0.00 0.00 0.00 88 1055.3
20260506000610 50 45 9.6 0.0 0.00 0.00 0.00 88 1055.3
20260506000458 50 67 8.7 0.0 0.00 0.00 0.00 88 1055.2
20260506000350 50 45 8.7 0.0 0.00 0.00 0.00 88 1055.3
20260506000235 50 22 0.0 0.0 0.00 0.00 0.00 88 1055.4
20260506000115 50 67 0.0 0.0 0.00 0.00 0.00 88 1055.2
20260506000009 50 45 4.3 0.0 0.00 0.00 0.00 88 1055.2
20260505235855 50 67 6.1 0.0 0.00 0.00 0.00 87 1055.2
20260505235742 50 22 5.2 0.0 0.00 0.00 0.00 87 1055.2
20260505235629 50 22 8.7 0.0 0.00 0.00 0.00 87 1055.2
20260505235524 50 22 3.5 0.0 0.00 0.00 0.00 87 1055.2
20260505235413 50 45 6.1 0.0 0.00 0.00 0.00 87 1055.2
20260505235306 50 45 4.3 0.0 0.00 0.00 0.00 87 1055.2
20260505235153 50 45 9.6 0.0 0.00 0.00 0.00 87 1055.4
20260505235039 50 22 2.6 0.0 0.00 0.00 0.00 86 1055.3
20260505234926 50 45 9.6 0.0 0.00 0.00 0.00 86 1055.3
20260505234813 50 90 4.3 0.0 0.00 0.00 0.00 86 1055.3
20260505234700 50 45 7.0 0.0 0.00 0.00 0.00 86 1055.3
20260505234548 50 45 2.6 0.0 0.00 0.00 0.00 86 1055.4
20260505234434 50 22 2.6 0.0 0.00 0.00 0.00 86 1055.3
20260505234313 50 67 4.3 0.0 0.00 0.00 0.00 86 1055.4
20260505234200 50 45 2.6 0.0 0.00 0.00 0.00 86 1055.4
20260505234046 50 22 9.6 0.0 0.00 0.00 0.00 86 1055.4
20260505233936 50 22 4.3 0.0 0.00 0.00 0.00 86 1055.4
20260505233828 50 0 5.2 0.0 0.00 0.00 0.00 85 1055.4
20260505233707 50 45 5.2 0.0 0.00 0.00 0.00 85 1055.4
20260505233603 50 22 7.8 0.0 0.00 0.00 0.00 85 1055.4
20260505233457 50 22 5.2 0.0 0.00 0.00 0.00 85 1055.3
20260505233346 50 45 4.3 0.0 0.00 0.00 0.00 85 1055.4
20260505233239 50 45 0.0 0.0 0.00 0.00 0.00 85 1055.3
20260505233136 50 45 7.8 0.0 0.00 0.00 0.00 85 1055.3
20260505233028 50 45 5.2 0.0 0.00 0.00 0.00 85 1055.3
20260505232908 50 45 10.4 0.0 0.00 0.00 0.00 84 1055.4
20260505232756 50 45 3.5 0.0 0.00 0.00 0.00 84 1055.4
20260505232649 50 45 7.8 0.0 0.00 0.00 0.00 84 1055.4
20260505232543 50 45 14.8 0.0 0.00 0.00 0.00 84 1055.4
20260505232438 50 22 5.2 0.0 0.00 0.00 0.00 83 1055.4
20260505232331 50 45 3.5 0.0 0.00 0.00 0.00 83 1055.4
20260505232226 50 22 6.1 0.0 0.00 0.00 0.00 83 1055.4
20260505232120 50 22 6.1 0.0 0.00 0.00 0.00 83 1055.3
20260505231959 50 0 4.3 0.0 0.00 0.00 0.00 83 1055.4
20260505231839 50 67 1.7 0.0 0.00 0.00 0.00 83 1055.4
20260505231733 50 45 3.5 0.0 0.00 0.00 0.00 83 1055.4
20260505231612 50 45 4.3 0.0 0.00 0.00 0.00 82 1055.4
20260505231459 50 22 5.2 0.0 0.00 0.00 0.00 82 1055.4
20260505231346 50 45 5.2 0.0 0.00 0.00 0.00 82 1055.4
20260505231240 50 45 3.5 0.0 0.00 0.00 0.00 82 1055.4
20260505231135 50 0 4.3 0.0 0.00 0.00 0.00 82 1055.4
20260505231029 50 45 7.8 0.0 0.00 0.00 0.00 82 1055.5
20260505230924 50 45 9.6 0.0 0.00 0.00 0.00 82 1055.4
20260505230818 50 22 3.5 0.0 0.00 0.00 0.00 82 1055.5
20260505230705 50 45 1.7 0.0 0.00 0.00 0.00 82 1055.6
20260505230544 50 90 10.4 0.0 0.00 0.00 0.00 82 1055.5
20260505230431 50 22 5.2 0.0 0.00 0.00 0.00 82 1055.5
20260505230317 50 22 5.2 0.0 0.00 0.00 0.00 82 1055.5
20260505230204 50 0 7.8 0.0 0.00 0.00 0.00 82 1055.5
20260505230052 50 22 4.3 0.0 0.00 0.00 0.00 82 1055.6
20260505225946 50 45 0.0 0.0 0.00 0.00 0.00 82 1055.5
20260505225833 50 45 6.1 0.0 0.00 0.00 0.00 82 1055.6
20260505225727 50 0 6.1 0.0 0.00 0.00 0.00 82 1055.6
20260505225622 50 0 5.2 0.0 0.00 0.00 0.00 82 1055.6
20260505225516 50 22 5.2 0.0 0.00 0.00 0.00 82 1055.6
20260505225410 50 22 2.6 0.0 0.00 0.00 0.00 82 1055.6
20260505225250 50 45 10.4 0.0 0.00 0.00 0.00 82 1055.6
20260505225143 50 45 5.2 0.0 0.00 0.00 0.00 82 1055.6
20260505225030 50 45 4.3 0.0 0.00 0.00 0.00 82 1055.6
20260505224924 50 67 0.0 0.0 0.00 0.00 0.00 83 1055.6
20260505224810 50 45 5.2 0.0 0.00 0.00 0.00 83 1055.7
20260505224705 50 22 5.2 0.0 0.00 0.00 0.00 83 1055.6
20260505224559 50 67 8.7 0.0 0.00 0.00 0.00 83 1055.7
20260505224453 50 22 7.0 0.0 0.00 0.00 0.00 83 1055.7
20260505224333 50 67 8.7 0.0 0.00 0.00 0.00 83 1055.7
20260505224226 50 90 7.0 0.0 0.00 0.00 0.00 83 1055.7
20260505224112 50 22 2.6 0.0 0.00 0.00 0.00 83 1055.7
20260505223958 50 45 5.2 0.0 0.00 0.00 0.00 83 1055.8
20260505223853 50 45 3.5 0.0 0.00 0.00 0.00 83 1055.7
20260505223746 50 45 4.3 0.0 0.00 0.00 0.00 83 1055.8
20260505223641 50 45 5.2 0.0 0.00 0.00 0.00 83 1055.8
20260505223534 50 45 7.0 0.0 0.00 0.00 0.00 83 1055.7
20260505223428 50 67 5.2 0.0 0.00 0.00 0.00 83 1055.7
20260505223314 50 22 1.7 0.0 0.00 0.00 0.00 83 1055.8
20260505223200 50 22 7.8 0.0 0.00 0.00 0.00 83 1055.7
20260505223038 50 45 4.3 0.0 0.00 0.00 0.00 84 1055.8
20260505222923 50 45 3.5 0.0 0.00 0.00 0.00 84 1055.8
20260505222801 50 67 6.1 0.0 0.00 0.00 0.00 84 1055.7
20260505222657 50 0 5.2 0.0 0.00 0.00 0.00 84 1055.8
20260505222548 50 45 5.2 0.0 0.00 0.00 0.00 84 1055.7
20260505222435 50 45 3.5 0.0 0.00 0.00 0.00 84 1055.7
20260505222328 50 45 4.3 0.0 0.00 0.00 0.00 84 1055.7
20260505222223 50 45 2.6 0.0 0.00 0.00 0.00 84 1055.7
20260505222116 50 22 5.2 0.0 0.00 0.00 0.00 84 1055.7
20260505222011 50 0 5.2 0.0 0.00 0.00 0.00 84 1055.7
20260505221904 50 22 4.3 0.0 0.00 0.00 0.00 84 1055.8
20260505221759 50 90 4.3 0.0 0.00 0.00 0.00 84 1055.7
20260505221654 50 90 7.8 0.0 0.00 0.00 0.00 84 1055.8
20260505221548 50 45 1.7 0.0 0.00 0.00 0.00 84 1055.8
20260505221435 50 45 3.5 0.0 0.00 0.00 0.00 84 1055.7
20260505221323 50 45 7.8 0.0 0.00 0.00 0.00 84 1055.7
20260505221219 50 45 5.2 0.0 0.00 0.00 0.00 85 1055.7
20260505221104 50 45 11.3 0.0 0.00 0.00 0.00 85 1055.7
20260505220951 50 45 15.6 0.0 0.00 0.00 0.00 85 1055.7
20260505220838 50 112 5.2 0.0 0.00 0.00 0.00 85 1055.7
20260505220716 50 22 5.2 0.0 0.00 0.00 0.00 85 1055.7
20260505220605 50 337 5.2 0.0 0.00 0.00 0.00 85 1055.7
20260505220458 50 22 5.2 0.0 0.00 0.00 0.00 85 1055.8
20260505220329 50 22 7.8 0.0 0.00 0.00 0.00 85 1055.8
20260505220216 50 22 5.2 0.0 0.00 0.00 0.00 85 1055.8
20260505220110 50 22 5.2 0.0 0.00 0.00 0.00 85 1055.8
20260505215941 50 67 9.6 0.0 0.00 0.00 0.00 85 1055.8
20260505215828 50 67 7.0 0.0 0.00 0.00 0.00 85 1055.8
20260505215723 50 45 4.3 0.0 0.00 0.00 0.00 85 1055.8
20260505215554 50 45 3.5 0.0 0.00 0.00 0.00 85 1055.8
20260505215441 50 45 3.5 0.0 0.00 0.00 0.00 85 1055.9
20260505215336 50 22 5.2 0.0 0.00 0.00 0.00 85 1055.9
20260505215224 50 0 11.3 0.0 0.00 0.00 0.00 85 1055.9
20260505215119 50 67 4.3 0.0 0.00 0.00 0.00 85 1055.8
20260505215013 50 22 6.1 0.0 0.00 0.00 0.00 85 1055.9
20260505214909 50 22 2.6 0.0 0.00 0.00 0.00 85 1055.9
20260505214803 50 45 4.3 0.0 0.00 0.00 0.00 85 1055.9
20260505214657 50 22 0.0 0.0 0.00 0.00 0.00 85 1056.0
20260505214545 50 22 7.8 0.0 0.00 0.00 0.00 85 1055.9
20260505214434 50 22 5.2 0.0 0.00 0.00 0.00 84 1056.0
20260505214326 50 45 3.5 0.0 0.00 0.00 0.00 84 1056.0
20260505214001 50 45 4.3 0.0 0.00 0.00 0.00 84 1056.0
20260505213851 50 45 1.7 0.0 0.00 0.00 0.00 84 1055.9
20260505213635 50 22 5.2 0.0 0.00 0.00 0.00 84 1056.0
20260505213521 50 45 7.0 0.0 0.00 0.00 0.00 84 1056.0
20260505213408 50 45 5.2 0.0 0.00 0.00 0.00 84 1056.0
20260505213254 50 67 8.7 0.0 0.00 0.00 0.00 84 1056.0
20260505213141 50 45 3.5 0.0 0.00 0.00 0.00 85 1056.0
20260505213027 50 45 5.2 0.0 0.00 0.00 0.00 85 1056.0
20260505212907 50 67 4.3 0.0 0.00 0.00 0.00 85 1056.1
20260505212754 50 67 4.3 0.0 0.00 0.00 0.00 85 1056.0
20260505212641 50 45 2.6 0.0 0.00 0.00 0.00 85 1056.0
20260505212528 50 22 8.7 0.0 0.00 0.00 0.00 85 1056.0
20260505212414 50 337 3.5 0.0 0.00 0.00 0.00 85 1056.0
20260505212305 50 45 4.3 0.0 0.00 0.00 0.00 85 1056.0
20260505212148 50 45 2.6 0.0 0.00 0.00 0.00 85 1056.0
20260505212036 50 22 2.6 0.0 0.00 0.00 0.00 85 1056.0
20260505211923 50 22 0.0 0.0 0.00 0.00 0.00 85 1056.0
20260505211817 50 45 4.3 0.0 0.00 0.00 0.00 85 1056.0
20260505211712 50 67 2.6 0.0 0.00 0.00 0.00 84 1056.0
20260505211601 50 45 7.0 0.0 0.00 0.00 0.00 84 1056.1
20260505211454 50 45 6.1 0.0 0.00 0.00 0.00 84 1056.1
20260505211333 50 45 7.8 0.0 0.00 0.00 0.00 84 1056.0
20260505211220 50 22 1.7 0.0 0.00 0.00 0.00 84 1056.1
20260505211114 50 22 7.8 0.0 0.00 0.00 0.00 85 1056.1
20260505210953 50 45 4.3 0.0 0.00 0.00 0.00 85 1056.1
20260505210840 50 45 10.4 0.0 0.00 0.00 0.00 85 1056.1
20260505210728 50 0 3.5 0.0 0.00 0.00 0.00 85 1056.1
20260505210622 50 45 4.3 0.0 0.00 0.00 0.00 85 1056.0
20260505210508 50 22 8.7 0.0 0.00 0.00 0.00 85 1056.1
20260505210348 50 45 5.2 0.0 0.00 0.00 0.00 85 1056.1
20260505210235 50 45 8.7 0.0 0.00 0.00 0.00 85 1056.1
20260505210129 50 22 5.2 0.0 0.00 0.00 0.00 85 1056.0
20260505210008 50 22 4.3 0.0 0.00 0.00 0.00 85 1056.0
20260505205847 50 0 2.6 0.0 0.00 0.00 0.00 85 1056.1
20260505205729 50 67 0.0 0.0 0.00 0.00 0.00 85 1056.1
20260505205622 50 22 2.6 0.0 0.00 0.00 0.00 85 1056.1
20260505205509 50 67 10.4 0.0 0.00 0.00 0.00 85 1056.1
20260505205403 50 45 4.3 0.0 0.00 0.00 0.00 85 1056.1
20260505205250 50 45 6.1 0.0 0.00 0.00 0.00 85 1056.1
20260505205144 50 45 6.1 0.0 0.00 0.00 0.00 85 1056.1
20260505205024 50 22 1.7 0.0 0.00 0.00 0.00 85 1056.1
20260505204911 50 45 11.3 0.0 0.00 0.00 0.00 85 1056.0
20260505204806 50 22 6.1 0.0 0.00 0.00 0.00 85 1056.1
20260505204653 50 45 11.3 0.0 0.00 0.00 0.00 85 1056.0
20260505204548 50 22 5.2 0.0 0.00 0.00 0.00 85 1056.0
20260505204442 50 45 4.3 0.0 0.00 0.00 0.00 85 1056.1
20260505204329 50 22 6.1 0.0 0.00 0.00 0.00 85 1056.0
20260505204217 50 90 6.1 0.0 0.00 0.00 0.00 85 1056.0
20260505204102 50 0 5.2 0.0 0.00 0.00 0.00 85 1055.9
20260505203950 50 22 6.1 0.0 0.00 0.00 0.00 85 1056.1
20260505203837 50 22 8.7 0.0 0.00 0.00 0.00 85 1056.0
20260505203732 50 0 3.5 0.0 0.00 0.00 0.00 85 1056.1
20260505203618 50 22 4.3 0.0 0.00 0.00 0.00 85 1056.1
20260505203458 50 0 4.3 0.0 0.00 0.00 0.00 85 1056.0
20260505203352 50 45 9.6 0.0 0.00 0.00 0.00 85 1056.0
20260505203241 50 0 9.6 0.0 0.00 0.00 0.00 85 1056.1
20260505203126 50 67 4.3 0.0 0.00 0.00 0.00 85 1056.1
20260505203015 50 45 10.4 0.0 0.00 0.00 0.00 85 1056.1
20260505202908 50 45 4.3 0.0 0.00 0.00 0.00 85 1056.2
20260505202803 50 0 0.0 0.0 0.00 0.00 0.00 84 1056.1
20260505202642 50 45 5.2 0.0 0.00 0.00 0.00 84 1056.1
20260505202537 50 0 7.0 0.0 0.00 0.00 0.00 84 1056.2
20260505202434 50 45 8.7 0.0 0.00 0.00 0.00 84 1056.2
20260505202318 50 22 3.5 0.0 0.00 0.00 0.00 84 1056.2
20260505202205 50 22 4.3 0.0 0.00 0.00 0.00 84 1056.1
20260505202058 50 22 10.4 0.0 0.00 0.00 0.00 84 1056.2
20260505201951 50 67 13.0 0.0 0.00 0.00 0.00 84 1056.2
20260505201839 50 22 8.7 0.0 0.00 0.00 0.00 84 1056.2
20260505201732 50 45 3.5 0.0 0.00 0.00 0.00 84 1056.2
20260505201612 50 67 1.7 0.0 0.00 0.00 0.00 84 1056.3
20260505201506 50 0 2.6 0.0 0.00 0.00 0.00 84 1056.3
20260505201352 50 22 3.5 0.0 0.00 0.00 0.00 85 1056.2
20260505201127 50 22 4.3 0.0 0.00 0.00 0.00 85 1056.2
20260505201014 50 45 8.7 0.0 0.00 0.00 0.00 84 1056.2
20260505200902 50 22 4.3 0.0 0.00 0.00 0.00 84 1056.2
20260505200754 50 22 3.5 0.0 0.00 0.00 0.00 84 1056.2
20260505200640 50 22 2.6 0.0 0.00 0.00 0.00 84 1056.2
20260505200534 50 67 6.1 0.0 0.00 0.00 0.00 84 1056.2
20260505200428 50 112 9.6 0.0 0.00 0.00 0.00 84 1056.2
20260505200322 50 22 4.3 0.0 0.00 0.00 0.00 84 1056.2
20260505200216 50 0 7.0 0.0 0.00 0.00 0.00 83 1056.2
20260505200109 50 67 7.8 0.0 0.00 0.00 0.00 83 1056.1
20260505200003 50 45 5.2 0.0 0.00 0.00 0.00 83 1056.2
20260505195849 50 22 5.2 0.0 0.00 0.00 0.00 83 1056.2
20260505195735 50 45 1.7 0.0 0.00 0.00 0.00 83 1056.1
20260505195621 50 45 7.0 0.0 0.00 0.00 0.00 83 1056.2
20260505195506 50 0 7.0 0.0 0.00 0.00 0.00 83 1056.2
20260505195347 50 67 3.5 0.0 0.00 0.00 0.00 83 1056.2
20260505195238 50 0 3.5 0.0 0.00 0.00 0.00 83 1056.3
20260505195118 50 45 5.2 0.0 0.00 0.00 0.00 83 1056.3
20260505195012 50 337 2.6 0.0 0.00 0.00 0.00 82 1056.2
20260505194802 50 22 1.7 0.0 0.00 0.00 0.00 82 1056.3
20260505194652 50 67 5.2 0.0 0.00 0.00 0.00 82 1056.3
20260505194546 50 67 5.2 0.0 0.00 0.00 0.00 82 1056.3
20260505194440 50 22 4.3 0.0 0.00 0.00 0.00 82 1056.3
20260505194327 50 45 12.2 0.0 0.00 0.00 0.00 82 1056.3
20260505194221 50 45 10.4 0.0 0.00 0.00 0.00 82 1056.2
20260505194107 50 22 3.5 0.0 0.00 0.00 0.00 82 1056.3
20260505193954 50 45 6.1 0.0 0.00 0.00 0.00 82 1056.2
20260505193850 50 45 8.7 0.0 0.00 0.00 0.00 82 1056.3
20260505193744 50 45 7.0 0.0 0.00 0.00 0.00 82 1056.3
20260505193623 50 22 5.2 0.0 0.00 0.00 0.00 82 1056.3
20260505193502 50 0 7.8 0.0 0.00 0.00 0.00 82 1056.3
20260505193333 50 45 9.6 0.0 0.00 0.00 0.00 82 1056.2
20260505193220 50 22 6.1 0.0 0.00 0.00 0.00 82 1056.3
20260505193106 50 45 5.2 0.0 0.00 0.00 0.00 82 1056.2
20260505192945 50 22 3.5 0.0 0.00 0.00 0.00 82 1056.2
20260505192830 50 22 5.2 0.0 0.00 0.00 0.00 82 1056.2
20260505192705 50 22 8.7 0.0 0.00 0.00 0.00 82 1056.2
20260505192557 50 337 5.2 0.0 0.00 0.00 0.00 82 1056.2
20260505192443 50 45 8.7 0.0 0.00 0.00 0.00 82 1056.2
20260505192336 50 45 6.1 0.0 0.00 0.00 0.00 82 1056.2
20260505192159 50 45 12.2 0.0 0.00 0.00 0.00 81 1056.2
20260505192054 50 22 6.1 0.0 0.00 0.00 0.00 81 1056.2
20260505191947 50 0 7.8 0.0 0.00 0.00 0.00 81 1056.2
20260505191820 50 22 7.0 0.0 0.00 0.00 0.00 81 1056.1
20260505191713 50 22 11.3 0.0 0.00 0.00 0.00 81 1056.3
20260505191559 50 337 6.1 0.0 0.00 0.00 0.00 80 1056.2
20260505191452 50 22 3.5 0.0 0.00 0.00 0.00 80 1056.2
20260505191326 50 22 6.1 0.0 0.00 0.00 0.00 81 1056.2
20260505191220 50 337 5.2 0.0 0.00 0.00 0.00 81 1056.2
20260505191113 50 22 8.7 0.0 0.00 0.00 0.00 81 1056.2
20260505190959 50 22 8.7 0.0 0.00 0.00 0.00 81 1056.2
20260505190829 50 45 6.1 0.0 0.00 0.00 0.00 81 1056.2
20260505190715 50 0 4.3 0.0 0.00 0.00 0.00 82 1056.2
20260505190608 50 45 7.0 0.0 0.00 0.00 0.00 82 1056.1
20260505190455 50 45 8.7 0.0 0.00 0.00 0.00 82 1056.1
20260505190351 50 45 7.0 0.0 0.00 0.00 0.00 82 1056.2
20260505190245 50 45 5.2 0.0 0.00 0.00 0.00 82 1056.1
20260505190120 50 45 7.0 0.0 0.00 0.00 0.00 82 1056.1
20260505190007 50 45 8.7 0.0 0.00 0.00 0.00 82 1056.1
20260505185854 50 22 5.2 0.0 0.00 0.00 0.00 82 1056.1
20260505185746 50 0 6.1 0.0 0.00 0.00 0.00 82 1056.1
20260505185627 50 45 7.8 0.0 0.00 0.00 0.00 82 1056.1
20260505185519 50 0 6.1 0.0 0.00 0.00 0.00 82 1056.1
20260505185406 50 45 9.6 0.0 0.00 0.00 0.00 82 1056.0
20260505185259 50 45 2.6 0.0 0.00 0.00 0.00 82 1056.1
20260505185130 50 0 5.2 0.0 0.00 0.00 0.00 82 1056.0
20260505185017 50 22 7.0 0.0 0.00 0.00 0.00 82 1056.0
20260505184911 50 0 5.2 0.0 0.00 0.00 0.00 82 1056.1
20260505184806 50 67 10.4 0.0 0.00 0.00 0.00 82 1056.1
20260505184653 50 0 8.7 0.0 0.00 0.00 0.00 83 1056.0
20260505184547 50 45 5.2 0.0 0.00 0.00 0.00 83 1056.0
20260505184441 50 45 12.2 0.0 0.00 0.00 0.00 83 1056.1
20260505184320 50 22 7.8 0.0 0.00 0.00 0.00 83 1056.0
20260505184211 50 22 0.0 0.0 0.00 0.00 0.00 83 1056.1
20260505184057 50 22 1.7 0.0 0.00 0.00 0.00 83 1056.0
20260505183952 50 22 5.2 0.0 0.00 0.00 0.00 83 1056.0
20260505183845 50 22 3.5 0.0 0.00 0.00 0.00 83 1056.0
20260505183730 50 22 4.3 0.0 0.00 0.00 0.00 82 1056.0
20260505183552 50 45 9.6 0.0 0.00 0.00 0.00 82 1055.9
20260505183433 50 45 7.8 0.0 0.00 0.00 0.00 83 1055.9
20260505183324 50 22 5.2 0.0 0.00 0.00 0.00 83 1056.0
20260505183210 50 45 7.0 0.0 0.00 0.00 0.00 83 1055.9
20260505183103 50 22 3.5 0.0 0.00 0.00 0.00 83 1056.0
20260505182936 50 22 0.0 0.0 0.00 0.00 0.00 83 1056.0
20260505182829 50 22 7.8 0.0 0.00 0.00 0.00 83 1055.9
20260505182724 50 22 3.5 0.0 0.00 0.00 0.00 83 1056.0
20260505182615 50 0 2.6 0.0 0.00 0.00 0.00 83 1055.9
20260505182501 50 0 5.2 0.0 0.00 0.00 0.00 83 1056.0
20260505182355 50 22 11.3 0.0 0.00 0.00 0.00 83 1056.0
20260505182250 50 0 7.0 0.0 0.00 0.00 0.00 83 1056.0
20260505182143 50 22 7.8 0.0 0.00 0.00 0.00 83 1055.9
20260505182036 50 45 5.2 0.0 0.00 0.00 0.00 83 1056.0
20260505181922 50 67 7.8 0.0 0.00 0.00 0.00 83 1056.0
20260505181802 50 45 5.2 0.0 0.00 0.00 0.00 83 1056.0
20260505181654 50 45 6.1 0.0 0.00 0.00 0.00 83 1055.9
20260505181539 50 67 12.2 0.0 0.00 0.00 0.00 83 1056.0
20260505181418 50 67 3.5 0.0 0.00 0.00 0.00 83 1055.9
20260505181313 50 45 10.4 0.0 0.00 0.00 0.00 83 1055.9
20260505181205 50 0 3.5 0.0 0.00 0.00 0.00 83 1055.9
20260505181054 50 45 9.6 0.0 0.00 0.00 0.00 83 1056.0
20260505180945 50 0 5.2 0.0 0.00 0.00 0.00 83 1056.0
20260505180831 50 315 6.1 0.0 0.00 0.00 0.00 83 1056.0
20260505180725 50 22 8.7 0.0 0.00 0.00 0.00 83 1056.0
20260505180618 50 0 4.3 0.0 0.00 0.00 0.00 83 1056.0
20260505180504 51 22 6.1 0.0 0.00 0.00 0.00 83 1056.0
20260505180352 51 45 7.0 0.0 0.00 0.00 0.00 83 1056.0
20260505180244 51 67 7.8 0.0 0.00 0.00 0.00 83 1056.0
20260505180130 51 0 11.3 0.0 0.00 0.00 0.00 83 1056.0
20260505180017 51 0 11.3 0.0 0.00 0.00 0.00 82 1056.0
20260505175857 51 45 7.0 0.0 0.00 0.00 0.00 82 1056.0
20260505175749 51 0 7.8 0.0 0.00 0.00 0.00 82 1056.0
20260505175642 51 22 4.3 0.0 0.00 0.00 0.00 82 1056.0
20260505175528 51 0 6.1 0.0 0.00 0.00 0.00 82 1056.1
20260505175414 51 0 9.6 0.0 0.00 0.00 0.00 82 1056.1
20260505175300 51 22 5.2 0.0 0.00 0.00 0.00 82 1056.0
20260505175138 51 0 3.5 0.0 0.00 0.00 0.00 82 1056.0
20260505175025 51 22 7.8 0.0 0.00 0.00 0.00 82 1056.0
20260505174912 51 0 8.7 0.0 0.00 0.00 0.00 82 1055.9
20260505174759 51 337 5.2 0.0 0.00 0.00 0.00 81 1056.0
20260505174638 51 22 7.0 0.0 0.00 0.00 0.00 81 1056.0
20260505174518 51 22 3.5 0.0 0.00 0.00 0.00 81 1056.1
20260505174408 51 0 5.2 0.0 0.00 0.00 0.00 81 1056.0
20260505174051 51 0 1.7 0.0 0.00 0.00 0.00 81 1056.1
20260505173936 51 22 7.0 0.0 0.00 0.00 0.00 81 1056.0
20260505173814 51 22 5.2 0.0 0.00 0.00 0.00 81 1056.1
20260505173701 51 22 6.1 0.0 0.00 0.00 0.00 81 1056.1
20260505173549 51 90 10.4 0.0 0.00 0.00 0.00 81 1056.0
20260505173443 51 0 11.3 0.0 0.00 0.00 0.00 81 1056.1
20260505173330 51 45 5.2 0.0 0.00 0.00 0.00 82 1056.1
20260505173225 51 337 4.3 0.0 0.00 0.00 0.00 82 1056.1
20260505173115 51 22 5.2 0.0 0.00 0.00 0.00 82 1056.1
20260505173005 51 45 3.5 0.0 0.00 0.00 0.00 82 1056.1
20260505172846 51 0 8.7 0.0 0.00 0.00 0.00 82 1056.1
20260505172732 51 337 6.1 0.0 0.00 0.00 0.00 82 1056.1
20260505172603 51 45 8.7 0.0 0.00 0.00 0.00 82 1056.1
20260505172434 51 0 5.2 0.0 0.00 0.00 0.00 82 1056.2
20260505172320 51 22 6.1 0.0 0.00 0.00 0.00 82 1056.2
20260505172159 51 0 5.2 0.0 0.00 0.00 0.00 82 1056.2
20260505172037 51 22 3.5 0.0 0.00 0.00 0.00 81 1056.2
20260505171919 51 0 5.2 0.0 0.00 0.00 0.00 81 1056.3
20260505171810 51 22 13.0 0.0 0.00 0.00 0.00 81 1056.3
20260505171649 51 0 9.6 0.0 0.00 0.00 0.00 81 1056.2
20260505171544 51 67 7.8 0.0 0.00 0.00 0.00 81 1056.2
20260505171429 51 0 5.2 0.0 0.00 0.00 0.00 81 1056.3
20260505171300 51 337 6.1 0.0 0.00 0.00 0.00 81 1056.2
20260505171139 51 0 8.7 0.0 0.00 0.00 0.00 81 1056.3
20260505171020 51 22 5.2 0.0 0.00 0.00 0.00 81 1056.2
20260505170913 51 337 7.0 0.0 0.00 0.00 0.00 81 1056.3
20260505170744 51 0 7.0 0.0 0.00 0.00 0.00 81 1056.3
20260505170631 51 22 5.2 0.0 0.00 0.00 0.00 81 1056.2
20260505170524 51 0 10.4 0.0 0.00 0.00 0.00 80 1056.3
20260505170405 51 337 12.2 0.0 0.00 0.00 0.00 80 1056.2
20260505170251 51 67 5.2 0.0 0.00 0.00 0.00 80 1056.3
20260505170138 51 22 4.3 0.0 0.00 0.00 0.00 80 1056.3
20260505170025 51 22 7.8 0.0 0.00 0.00 0.00 80 1056.4
20260505165904 51 45 8.7 0.0 0.00 0.00 0.00 80 1056.3
20260505165744 51 22 9.6 0.0 0.00 0.00 0.00 80 1056.2
20260505165631 52 0 13.0 0.0 0.00 0.00 0.00 80 1056.2
20260505165524 52 45 7.0 0.0 0.00 0.00 0.00 80 1056.2
20260505165413 52 22 3.5 0.0 0.00 0.00 0.00 80 1056.2
20260505165308 52 0 6.1 0.0 0.00 0.00 0.00 80 1056.2
20260505165204 52 337 7.8 0.0 0.00 0.00 0.00 79 1056.2
20260505165056 52 45 7.8 0.0 0.00 0.00 0.00 79 1056.2
20260505164934 52 22 5.2 0.0 0.00 0.00 0.00 79 1056.3
20260505164814 52 0 6.1 0.0 0.00 0.00 0.00 80 1056.2
20260505164701 52 45 5.2 0.0 0.00 0.00 0.00 80 1056.2
20260505164548 52 22 9.6 0.0 0.00 0.00 0.00 79 1056.3
20260505164436 52 22 11.3 0.0 0.00 0.00 0.00 79 1056.2
20260505164332 52 22 4.3 0.0 0.00 0.00 0.00 80 1056.3
20260505164223 52 22 5.2 0.0 0.00 0.00 0.00 80 1056.3
20260505164057 52 0 4.3 0.0 0.00 0.00 0.00 80 1056.3
20260505163949 52 0 8.7 0.0 0.00 0.00 0.00 80 1056.3
20260505163828 52 22 3.5 0.0 0.00 0.00 0.00 80 1056.3
20260505163700 52 0 5.2 0.0 0.00 0.00 0.00 79 1056.3
20260505163554 52 0 14.8 0.0 0.00 0.00 0.00 79 1056.3
20260505163434 52 0 7.8 0.0 0.00 0.00 0.00 79 1056.3
20260505163328 52 22 3.5 0.0 0.00 0.00 0.00 79 1056.3
20260505163207 52 0 7.8 0.0 0.00 0.00 0.00 79 1056.3
20260505163046 52 0 12.2 0.0 0.00 0.00 0.00 79 1056.3
20260505162932 52 337 7.0 0.0 0.00 0.00 0.00 78 1056.3
20260505162811 52 45 0.9 0.0 0.00 0.00 0.00 78 1056.3
20260505162657 52 22 8.7 0.0 0.00 0.00 0.00 78 1056.3
20260505162542 52 67 8.7 0.0 0.00 0.00 0.00 78 1056.3
20260505162430 52 0 7.8 0.0 0.00 0.00 0.00 78 1056.3
20260505162323 52 45 9.6 0.0 0.00 0.00 0.00 78 1056.4
20260505162209 52 45 12.2 0.0 0.00 0.00 0.00 78 1056.4
20260505162055 53 45 4.3 0.0 0.00 0.00 0.00 78 1056.3
20260505161925 52 0 5.2 0.0 0.00 0.00 0.00 78 1056.3
20260505161811 52 0 3.5 0.0 0.00 0.00 0.00 78 1056.4
20260505161655 52 22 0.0 0.0 0.00 0.00 0.00 78 1056.4
20260505161534 52 45 7.8 0.0 0.00 0.00 0.00 77 1056.4
20260505161419 52 45 5.2 0.0 0.00 0.00 0.00 77 1056.4
20260505161305 52 22 9.6 0.0 0.00 0.00 0.00 78 1056.3
20260505161150 52 0 9.6 0.0 0.00 0.00 0.00 77 1056.4
20260505161029 52 0 4.3 0.0 0.00 0.00 0.00 77 1056.4
20260505160914 52 22 13.9 0.0 0.00 0.00 0.00 77 1056.5
20260505160755 52 22 6.1 0.0 0.00 0.00 0.00 77 1056.4
20260505160646 52 22 5.2 0.0 0.00 0.00 0.00 77 1056.4
20260505160532 52 67 9.6 0.0 0.00 0.00 0.00 76 1056.5
20260505160417 52 0 6.1 0.0 0.00 0.00 0.00 76 1056.5
20260505160255 53 45 4.3 0.0 0.00 0.00 0.00 75 1056.4
20260505160142 53 22 12.2 0.0 0.00 0.00 0.00 75 1056.5
20260505153307 53 45 7.0 0.0 0.00 0.00 0.00 75 1056.5
20260505153154 53 22 1.7 0.0 0.00 0.00 0.00 74 1056.5
20260505153040 53 45 8.7 0.0 0.00 0.00 0.00 74 1056.6
20260505152918 53 45 7.8 0.0 0.00 0.00 0.00 74 1056.5
20260505152807 53 22 11.3 0.0 0.00 0.00 0.00 74 1056.5
20260505152701 53 45 7.8 0.0 0.00 0.00 0.00 74 1056.5
20260505152539 53 22 6.1 0.0 0.00 0.00 0.00 74 1056.6
20260505152418 53 0 5.2 0.0 0.00 0.00 0.00 73 1056.6
20260505152251 53 22 6.1 0.0 0.00 0.00 0.00 74 1056.6
20260505152144 53 0 10.4 0.0 0.00 0.00 0.00 74 1056.6
20260505152031 53 0 8.7 0.0 0.00 0.00 0.00 74 1056.7
20260505151925 53 67 2.6 0.0 0.00 0.00 0.00 74 1056.6
20260505151813 53 22 2.6 0.0 0.00 0.00 0.00 73 1056.6
20260505151700 53 22 5.2 0.0 0.00 0.00 0.00 73 1056.7
20260505151546 54 0 12.2 0.0 0.00 0.00 0.00 73 1056.6
20260505151433 54 0 9.6 0.0 0.00 0.00 0.00 74 1056.7
20260505151314 54 0 1.7 0.0 0.00 0.00 0.00 74 1056.7
20260505151159 54 337 5.2 0.0 0.00 0.00 0.00 74 1056.7
20260505151038 54 45 6.1 0.0 0.00 0.00 0.00 74 1056.7
20260505150919 54 0 5.2 0.0 0.00 0.00 0.00 74 1056.7
20260505150812 54 0 9.6 0.0 0.00 0.00 0.00 73 1056.6
20260505150659 54 0 14.8 0.0 0.00 0.00 0.00 73 1056.6
20260505150556 54 22 5.2 0.0 0.00 0.00 0.00 73 1056.7
20260505150446 54 337 7.0 0.0 0.00 0.00 0.00 73 1056.7
20260505150319 54 22 5.2 0.0 0.00 0.00 0.00 72 1056.6
20260505150158 54 0 13.9 0.0 0.00 0.00 0.00 73 1056.7
20260505140625 56 90 5.2 0.0 0.00 0.00 0.00 71 1056.9
20260505140512 56 22 2.6 0.0 0.00 0.00 0.00 70 1056.9
20260505140406 56 22 3.5 0.0 0.00 0.00 0.00 70 1056.9
20260505140301 56 0 5.2 0.0 0.00 0.00 0.00 70 1057.0
20260505140140 56 22 6.1 0.0 0.00 0.00 0.00 70 1056.9
20260505130304 55 67 1.7 0.0 0.00 0.00 0.00 72 1057.2
20260505130150 55 22 4.3 0.0 0.00 0.00 0.00 73 1057.2
20260505125004 54 0 4.3 0.0 0.00 0.00 0.00 75 1057.3
20260505124853 53 22 3.5 0.0 0.00 0.00 0.00 75 1057.2
20260505124746 53 45 5.2 0.0 0.00 0.00 0.00 75 1057.3
20260505124633 53 45 1.7 0.0 0.00 0.00 0.00 75 1057.3
20260505124503 53 22 5.2 0.0 0.00 0.00 0.00 75 1057.3
20260505124351 53 22 6.1 0.0 0.00 0.00 0.00 76 1057.3
20260505124245 53 22 4.3 0.0 0.00 0.00 0.00 76 1057.3
20260505124124 53 22 2.6 0.0 0.00 0.00 0.00 75 1057.3
20260505124014 53 22 7.0 0.0 0.00 0.00 0.00 76 1057.3
20260505123906 53 22 2.6 0.0 0.00 0.00 0.00 76 1057.3
20260505123753 53 45 4.3 0.0 0.00 0.00 0.00 75 1057.3
20260505123647 53 0 4.3 0.0 0.00 0.00 0.00 76 1057.3
20260505123517 53 22 4.3 0.0 0.00 0.00 0.00 76 1057.3
20260505123403 53 45 4.3 0.0 0.00 0.00 0.00 75 1057.3
20260505123257 53 22 3.5 0.0 0.00 0.00 0.00 75 1057.4
20260505123152 53 0 8.7 0.0 0.00 0.00 0.00 74 1057.4
20260505123047 53 45 9.6 0.0 0.00 0.00 0.00 74 1057.4
20260505122942 53 45 10.4 0.0 0.00 0.00 0.00 75 1057.4
20260505122836 53 0 5.2 0.0 0.00 0.00 0.00 74 1057.4
20260505122726 53 45 5.2 0.0 0.00 0.00 0.00 74 1057.4
20260505122620 53 45 10.4 0.0 0.00 0.00 0.00 74 1057.4
20260505122514 53 90 5.2 0.0 0.00 0.00 0.00 74 1057.4
20260505122352 53 22 9.6 0.0 0.00 0.00 0.00 74 1057.5
20260505122239 53 0 7.0 0.0 0.00 0.00 0.00 75 1057.4
20260505122117 53 45 3.5 0.0 0.00 0.00 0.00 74 1057.4
20260505122005 53 45 2.6 0.0 0.00 0.00 0.00 74 1057.4
20260505121851 53 22 6.1 0.0 0.00 0.00 0.00 74 1057.4
20260505121738 53 45 5.2 0.0 0.00 0.00 0.00 74 1057.4
20260505121619 53 0 2.6 0.0 0.00 0.00 0.00 74 1057.4
20260505121512 53 0 5.2 0.0 0.00 0.00 0.00 74 1057.3
20260505121359 53 45 7.0 0.0 0.00 0.00 0.00 74 1057.4
20260505121245 53 0 4.3 0.0 0.00 0.00 0.00 73 1057.3
20260505121124 53 45 2.6 0.0 0.00 0.00 0.00 73 1057.4
20260505121003 53 45 6.1 0.0 0.00 0.00 0.00 73 1057.4
20260505120852 53 22 7.8 0.0 0.00 0.00 0.00 73 1057.4
20260505120747 53 45 6.1 0.0 0.00 0.00 0.00 72 1057.4
20260505120642 53 45 7.0 0.0 0.00 0.00 0.00 73 1057.3
20260505120520 54 22 5.2 0.0 0.00 0.00 0.00 72 1057.4
20260505120414 54 45 3.5 0.0 0.00 0.00 0.00 71 1057.3
20260505120308 54 45 4.3 0.0 0.00 0.00 0.00 71 1057.3
20260505120201 54 337 3.5 0.0 0.00 0.00 0.00 71 1057.3
20260505120048 54 67 9.6 0.0 0.00 0.00 0.00 71 1057.4
20260505115935 54 0 4.3 0.0 0.00 0.00 0.00 71 1057.4
20260505115805 54 45 9.6 0.0 0.00 0.00 0.00 70 1057.4
20260505115644 55 0 5.2 0.0 0.00 0.00 0.00 69 1057.4
20260505115532 55 45 8.7 0.0 0.00 0.00 0.00 69 1057.3
20260505115426 55 22 6.1 0.0 0.00 0.00 0.00 70 1057.4
20260505115313 55 22 2.6 0.0 0.00 0.00 0.00 70 1057.4
20260505115201 55 45 4.3 0.0 0.00 0.00 0.00 70 1057.4
20260505115054 55 22 7.8 0.0 0.00 0.00 0.00 70 1057.3
20260505114934 55 22 2.6 0.0 0.00 0.00 0.00 69 1057.4
20260505114829 55 22 7.0 0.0 0.00 0.00 0.00 69 1057.4
20260505114707 55 67 6.1 0.0 0.00 0.00 0.00 69 1057.3
20260505114542 55 45 5.2 0.0 0.00 0.00 0.00 69 1057.3
20260505114433 55 0 5.2 0.0 0.00 0.00 0.00 69 1057.3
20260505114312 55 337 5.2 0.0 0.00 0.00 0.00 69 1057.3
20260505114159 55 45 8.7 0.0 0.00 0.00 0.00 68 1057.3
20260505114038 55 0 5.2 0.0 0.00 0.00 0.00 68 1057.3
20260505113933 55 22 7.8 0.0 0.00 0.00 0.00 68 1057.3
20260505113828 55 22 6.1 0.0 0.00 0.00 0.00 69 1057.3
20260505113714 55 45 4.3 0.0 0.00 0.00 0.00 69 1057.3
20260505113601 55 45 10.4 0.0 0.00 0.00 0.00 69 1057.3
20260505113440 55 22 3.5 0.0 0.00 0.00 0.00 71 1057.3
20260505113321 55 45 5.2 0.0 0.00 0.00 0.00 71 1057.3
20260505113214 55 22 5.2 0.0 0.00 0.00 0.00 71 1057.3
20260505113109 55 67 6.1 0.0 0.00 0.00 0.00 71 1057.3
20260505113003 54 22 1.7 0.0 0.00 0.00 0.00 70 1057.3
20260505112835 54 45 5.2 0.0 0.00 0.00 0.00 70 1057.3
20260505112730 54 45 4.3 0.0 0.00 0.00 0.00 70 1057.3
20260505112624 54 67 7.8 0.0 0.00 0.00 0.00 69 1057.3
20260505112511 54 67 13.0 0.0 0.00 0.00 0.00 71 1057.3
20260505112406 54 45 2.6 0.0 0.00 0.00 0.00 70 1057.3
20260505112252 54 112 5.2 0.0 0.00 0.00 0.00 71 1057.3
20260505112140 54 0 4.3 0.0 0.00 0.00 0.00 71 1057.3
20260505112027 54 22 7.0 0.0 0.00 0.00 0.00 71 1057.3
20260505111912 54 0 3.5 0.0 0.00 0.00 0.00 71 1057.3
20260505111759 54 90 3.5 0.0 0.00 0.00 0.00 71 1057.4
20260505111645 54 0 4.3 0.0 0.00 0.00 0.00 71 1057.3
20260505111533 54 90 6.1 0.0 0.00 0.00 0.00 71 1057.4
20260505111426 54 22 5.2 0.0 0.00 0.00 0.00 72 1057.4
20260505111321 54 22 6.1 0.0 0.00 0.00 0.00 72 1057.4
20260505111208 53 45 6.1 0.0 0.00 0.00 0.00 73 1057.3
20260505111102 53 337 3.5 0.0 0.00 0.00 0.00 73 1057.3
20260505110958 53 22 6.1 0.0 0.00 0.00 0.00 73 1057.3
20260505110852 53 22 4.3 0.0 0.00 0.00 0.00 73 1057.3
20260505110732 53 22 3.5 0.0 0.00 0.00 0.00 73 1057.3
20260505110626 53 0 3.5 0.0 0.00 0.00 0.00 73 1057.2
20260505110505 53 45 4.3 0.0 0.00 0.00 0.00 73 1057.2
20260505110335 53 22 2.6 0.0 0.00 0.00 0.00 74 1057.3
20260505110223 53 45 2.6 0.0 0.00 0.00 0.00 73 1057.3
20260505110110 53 67 5.2 0.0 0.00 0.00 0.00 73 1057.3
20260505102153 52 22 2.6 0.0 0.00 0.00 0.00 74 1057.3
20260505102040 52 22 3.5 0.0 0.00 0.00 0.00 74 1057.5
20260505101926 52 45 6.1 0.0 0.00 0.00 0.00 73 1057.4
20260505101807 52 22 10.4 0.0 0.00 0.00 0.00 73 1057.4
20260505101701 52 22 5.2 0.0 0.00 0.00 0.00 73 1057.5
20260505101548 52 22 5.2 0.0 0.00 0.00 0.00 73 1057.4
20260505101442 52 90 0.9 0.0 0.00 0.00 0.00 73 1057.5
20260505101337 52 22 5.2 0.0 0.00 0.00 0.00 73 1057.5
20260505101208 52 0 5.2 0.0 0.00 0.00 0.00 74 1057.5
20260505101054 52 90 4.3 0.0 0.00 0.00 0.00 74 1057.5
20260505100934 52 67 5.2 0.0 0.00 0.00 0.00 74 1057.5
20260505100820 52 22 2.6 0.0 0.00 0.00 0.00 74 1057.5
20260505100707 52 45 6.1 0.0 0.00 0.00 0.00 74 1057.5
20260505100603 52 22 9.6 0.0 0.00 0.00 0.00 75 1057.5
20260505100458 52 22 5.2 0.0 0.00 0.00 0.00 74 1057.5
20260505100338 52 22 1.7 0.0 0.00 0.00 0.00 74 1057.6
20260505100223 52 67 6.1 0.0 0.00 0.00 0.00 74 1057.6
20260505100110 52 22 6.1 0.0 0.00 0.00 0.00 74 1057.5
20260505100005 52 22 7.8 0.0 0.00 0.00 0.00 75 1057.7
20260505095846 52 22 2.6 0.0 0.00 0.00 0.00 75 1057.7
20260505095741 52 22 1.7 0.0 0.00 0.00 0.00 75 1057.8
20260505095636 52 22 1.7 0.0 0.00 0.00 0.00 75 1057.7
20260505095521 52 22 3.5 0.0 0.00 0.00 0.00 74 1057.8
20260505095407 52 67 4.3 0.0 0.00 0.00 0.00 74 1057.8
20260505095247 52 0 7.8 0.0 0.00 0.00 0.00 74 1057.9
20260505095141 52 22 5.2 0.0 0.00 0.00 0.00 74 1057.8
20260505095028 52 22 4.3 0.0 0.00 0.00 0.00 75 1057.9
20260505094923 52 22 1.7 0.0 0.00 0.00 0.00 75 1057.9
20260505094810 52 90 4.3 0.0 0.00 0.00 0.00 75 1057.9
20260505094705 52 45 3.5 0.0 0.00 0.00 0.00 75 1057.9
20260505094552 52 0 6.1 0.0 0.00 0.00 0.00 75 1057.9
20260505094441 52 67 3.5 0.0 0.00 0.00 0.00 75 1058.0
20260505094334 52 22 3.5 0.0 0.00 0.00 0.00 75 1057.9
20260505094221 52 45 7.0 0.0 0.00 0.00 0.00 74 1058.0
20260505094107 52 45 6.1 0.0 0.00 0.00 0.00 75 1058.0
20260505093954 52 45 5.2 0.0 0.00 0.00 0.00 75 1058.0
20260505093833 52 22 7.0 0.0 0.00 0.00 0.00 75 1058.1
20260505093711 52 0 2.6 0.0 0.00 0.00 0.00 75 1058.1
20260505093550 52 22 0.0 0.0 0.00 0.00 0.00 75 1058.1
20260505093437 51 45 0.0 0.0 0.00 0.00 0.00 75 1058.1
20260505093331 52 90 7.0 0.0 0.00 0.00 0.00 75 1058.1
20260505093225 52 90 8.7 0.0 0.00 0.00 0.00 75 1058.1
20260505093111 52 45 3.5 0.0 0.00 0.00 0.00 75 1058.1
20260505092951 52 22 5.2 0.0 0.00 0.00 0.00 75 1058.0
20260505092845 52 22 2.6 0.0 0.00 0.00 0.00 75 1058.1
20260505092732 52 22 6.1 0.0 0.00 0.00 0.00 75 1058.1
20260505092626 52 22 4.3 0.0 0.00 0.00 0.00 76 1058.1
20260505092506 52 45 3.5 0.0 0.00 0.00 0.00 76 1058.2
20260505092354 52 45 1.7 0.0 0.00 0.00 0.00 75 1058.2
20260505092248 52 22 9.6 0.0 0.00 0.00 0.00 75 1058.1
20260505092142 52 45 6.1 0.0 0.00 0.00 0.00 75 1058.2
20260505092029 52 22 4.3 0.0 0.00 0.00 0.00 75 1058.0
20260505091925 52 22 6.1 0.0 0.00 0.00 0.00 75 1058.1
20260505091819 52 45 3.5 0.0 0.00 0.00 0.00 76 1058.1
20260505091715 52 292 4.3 0.0 0.00 0.00 0.00 76 1058.2
20260505091608 52 22 0.0 0.0 0.00 0.00 0.00 76 1058.1
20260505091503 52 45 2.6 0.0 0.00 0.00 0.00 76 1058.2
20260505091357 52 22 4.3 0.0 0.00 0.00 0.00 76 1058.1
20260505091251 51 45 7.8 0.0 0.00 0.00 0.00 76 1058.1
20260505091145 51 0 5.2 0.0 0.00 0.00 0.00 76 1058.2
20260505091024 51 22 7.8 0.0 0.00 0.00 0.00 76 1058.1
20260505090910 51 22 2.6 0.0 0.00 0.00 0.00 76 1058.1
20260505090750 51 45 1.7 0.0 0.00 0.00 0.00 76 1058.1
20260505090646 51 67 0.9 0.0 0.00 0.00 0.00 75 1058.3
20260505090540 51 45 4.3 0.0 0.00 0.00 0.00 76 1058.2
20260505090432 51 22 5.2 0.0 0.00 0.00 0.00 76 1058.2
20260505090159 51 22 6.1 0.0 0.00 0.00 0.00 76 1058.2
20260505090054 51 22 6.1 0.0 0.00 0.00 0.00 76 1058.1
20260505085810 51 67 6.1 0.0 0.00 0.00 0.00 75 1058.0
20260505085705 51 45 3.5 0.0 0.00 0.00 0.00 75 1058.1
20260505085540 51 337 3.5 0.0 0.00 0.00 0.00 75 1058.1
20260505085429 51 22 7.0 0.0 0.00 0.00 0.00 75 1058.0
20260505085308 51 45 7.0 0.0 0.00 0.00 0.00 75 1058.1
20260505085139 51 0 7.0 0.0 0.00 0.00 0.00 75 1058.1
20260505085034 51 22 5.2 0.0 0.00 0.00 0.00 75 1058.1
20260505084928 51 0 5.2 0.0 0.00 0.00 0.00 75 1058.1
20260505084823 51 22 2.6 0.0 0.00 0.00 0.00 75 1058.1
20260505084719 51 45 12.2 0.0 0.00 0.00 0.00 75 1058.2
20260505084613 51 45 7.0 0.0 0.00 0.00 0.00 75 1058.1
20260505084508 51 45 3.5 0.0 0.00 0.00 0.00 75 1058.1
20260505084355 51 22 2.6 0.0 0.00 0.00 0.00 75 1058.0
20260505084234 52 45 7.0 0.0 0.00 0.00 0.00 75 1058.1
20260505084129 52 0 5.2 0.0 0.00 0.00 0.00 75 1058.1
20260505084015 52 45 4.3 0.0 0.00 0.00 0.00 75 1058.2
20260505083910 52 0 3.5 0.0 0.00 0.00 0.00 75 1058.2
20260505083804 52 22 2.6 0.0 0.00 0.00 0.00 75 1058.2
20260505083650 52 45 4.3 0.0 0.00 0.00 0.00 75 1058.2
20260505083537 52 22 5.2 0.0 0.00 0.00 0.00 75 1058.1
20260505083415 51 45 10.4 0.0 0.00 0.00 0.00 75 1058.1
20260505083246 51 90 2.6 0.0 0.00 0.00 0.00 75 1058.2
20260505083134 51 45 5.2 0.0 0.00 0.00 0.00 75 1058.0
20260505083028 51 22 7.0 0.0 0.00 0.00 0.00 75 1058.1
20260505082918 51 45 4.3 0.0 0.00 0.00 0.00 75 1058.1
20260505082812 51 22 4.3 0.0 0.00 0.00 0.00 75 1058.0
20260505082657 52 22 8.7 0.0 0.00 0.00 0.00 75 1058.1
20260505082537 52 22 5.2 0.0 0.00 0.00 0.00 75 1058.0
20260505082430 52 45 7.8 0.0 0.00 0.00 0.00 75 1058.0
20260505082311 51 45 1.7 0.0 0.00 0.00 0.00 76 1058.0
20260505082205 51 0 4.3 0.0 0.00 0.00 0.00 75 1058.0
20260505082058 51 22 4.3 0.0 0.00 0.00 0.00 75 1058.0
20260505081946 51 0 3.5 0.0 0.00 0.00 0.00 75 1058.0
20260505081833 51 0 3.5 0.0 0.00 0.00 0.00 75 1058.0
20260505081719 51 22 6.1 0.0 0.00 0.00 0.00 76 1057.9
20260505081605 51 45 5.2 0.0 0.00 0.00 0.00 75 1058.0
20260505081445 51 45 3.5 0.0 0.00 0.00 0.00 75 1058.0
20260505081340 51 45 6.1 0.0 0.00 0.00 0.00 75 1058.0
20260505081233 51 22 4.3 0.0 0.00 0.00 0.00 75 1058.0
20260505081115 51 22 6.1 0.0 0.00 0.00 0.00 75 1058.1
20260505081007 51 45 5.2 0.0 0.00 0.00 0.00 75 1058.0
20260505080855 51 45 8.7 0.0 0.00 0.00 0.00 75 1058.0
20260505080742 51 22 2.6 0.0 0.00 0.00 0.00 75 1058.1
20260505080622 51 45 11.3 0.0 0.00 0.00 0.00 76 1058.0
20260505080515 51 0 3.5 0.0 0.00 0.00 0.00 76 1058.0
20260505080410 51 90 3.5 0.0 0.00 0.00 0.00 76 1058.1
20260505080302 51 22 2.6 0.0 0.00 0.00 0.00 76 1058.1
20260505080149 51 45 4.3 0.0 0.00 0.00 0.00 76 1058.1
20260505080036 51 45 2.6 0.0 0.00 0.00 0.00 76 1058.1
20260505075930 51 0 5.2 0.0 0.00 0.00 0.00 76 1058.1
20260505075824 51 22 3.5 0.0 0.00 0.00 0.00 76 1058.1
20260505075712 51 45 0.0 0.0 0.00 0.00 0.00 76 1058.0
20260505075553 51 22 5.2 0.0 0.00 0.00 0.00 76 1058.0
20260505075446 51 90 1.7 0.0 0.00 0.00 0.00 76 1058.0
20260505075333 51 112 4.3 0.0 0.00 0.00 0.00 76 1058.0
20260505075228 51 90 2.6 0.0 0.00 0.00 0.00 76 1058.1
20260505075114 51 45 0.0 0.0 0.00 0.00 0.00 76 1058.0
20260505074945 51 22 4.3 0.0 0.00 0.00 0.00 76 1058.0
20260505074840 51 45 8.7 0.0 0.00 0.00 0.00 76 1058.0
20260505074735 51 0 7.0 0.0 0.00 0.00 0.00 77 1058.0
20260505074629 51 45 8.7 0.0 0.00 0.00 0.00 77 1058.0
20260505074523 51 45 4.3 0.0 0.00 0.00 0.00 77 1058.0
20260505074409 51 45 5.2 0.0 0.00 0.00 0.00 77 1058.0
20260505074301 50 22 2.6 0.0 0.00 0.00 0.00 76 1058.0
20260505074140 50 45 7.0 0.0 0.00 0.00 0.00 76 1058.0
20260505074026 50 90 7.0 0.0 0.00 0.00 0.00 76 1058.0
20260505073919 50 45 7.8 0.0 0.00 0.00 0.00 77 1058.0
20260505073814 50 45 3.5 0.0 0.00 0.00 0.00 77 1058.0
20260505073709 50 90 4.3 0.0 0.00 0.00 0.00 77 1058.0
20260505073602 50 45 5.2 0.0 0.00 0.00 0.00 77 1058.0
20260505073455 50 45 6.1 0.0 0.00 0.00 0.00 76 1058.0
20260505073341 50 90 4.3 0.0 0.00 0.00 0.00 76 1058.0
20260505073220 50 45 2.6 0.0 0.00 0.00 0.00 76 1058.0
20260505073114 50 45 7.0 0.0 0.00 0.00 0.00 76 1058.0
20260505073007 50 0 6.1 0.0 0.00 0.00 0.00 77 1058.1
20260505072854 50 67 6.1 0.0 0.00 0.00 0.00 78 1058.1
20260505072749 50 67 4.3 0.0 0.00 0.00 0.00 78 1058.1
20260505072643 50 67 4.3 0.0 0.00 0.00 0.00 78 1058.1
20260505072535 50 0 5.2 0.0 0.00 0.00 0.00 78 1058.0
20260505072422 50 112 5.2 0.0 0.00 0.00 0.00 78 1058.1
20260505072309 50 45 3.5 0.0 0.00 0.00 0.00 78 1058.0
20260505072159 50 67 0.0 0.0 0.00 0.00 0.00 78 1058.0
20260505072052 50 67 2.6 0.0 0.00 0.00 0.00 78 1058.0
20260505071946 50 45 0.0 0.0 0.00 0.00 0.00 78 1058.1
20260505071833 50 45 3.5 0.0 0.00 0.00 0.00 78 1058.0
20260505071727 50 67 3.5 0.0 0.00 0.00 0.00 78 1058.0
20260505071615 50 22 2.6 0.0 0.00 0.00 0.00 78 1058.0
20260505071502 50 45 3.5 0.0 0.00 0.00 0.00 78 1058.1
20260505071351 50 22 4.3 0.0 0.00 0.00 0.00 79 1058.1
20260505071243 50 22 0.0 0.0 0.00 0.00 0.00 79 1058.1
20260505071131 50 90 2.6 0.0 0.00 0.00 0.00 79 1058.1
20260505071025 50 112 0.0 0.0 0.00 0.00 0.00 79 1058.1
20260505070913 49 45 1.7 0.0 0.00 0.00 0.00 80 1058.1
20260505070759 49 67 2.6 0.0 0.00 0.00 0.00 80 1058.1